Copper Harbor, MI

4:20 PM EDT on May 27, 2018 (GMT -0400)
Copper Harbor

Weather History for KP59 - December, 2012

Change the Weather History Date:

Thursday, December 6, 2012

  Actual Average Record
Temperature  
Mean Temperature 36 °F -  
Max Temperature 39 °F 32 °F 43 °F (2015)
Min Temperature 33 °F 24 °F 10 °F (2000)
Degree Days  
Heating Degree Days 29    
Moisture  
Dew Point 31 °F    
Average Humidity 79    
Maximum Humidity 89    
Minimum Humidity 66    
Precipitation  
Precipitation 0.09 in - - ()
Sea Level Pressure  
Sea Level Pressure 29.79 in    
Wind  
Wind Speed 14 mph (WSW)    
Max Wind Speed 21 mph    
Max Gust Speed 38 mph    
Averages and records for this station are not official NWS values.
T = Trace of Precipitation, MM = Missing Value Source: NWS Daily Summary

Daily Weather History Graph

Daily Weather History Graph

Search for Another Location

Airport or City:

Astronomy

Dec. 06, 2012 Rise Set
Actual Time 8:24 AM EST 5:01 PM EST
Civil Twilight 7:49 AM EST 5:36 PM EST
Nautical Twilight 7:10 AM EST 6:15 PM EST
Astronomical Twilight 6:33 AM EST 6:52 PM EST
Moon 12:12 AM EST (12/6) 12:53 PM EST (12/6)
Length of Visible Light 9h 47m
Length of Day
8h 36m
Waning Gibbous, 49% of the Moon is Illuminated
Dec 6
Waning Gibbous
Dec 13
New
Dec 20
First Quarter
Dec 28
Full
Jan 4
Last Quarter

Hourly Weather History & Observations

Time (EST) Temp. Windchill Dew Point Humidity Pressure Visibility Wind Dir Wind Speed Gust Speed Precip Events Conditions
12:51 AM 33.1 °F 21.2 °F 23.0 °F 66% 29.99 in - SW 20.7 mph 38.0 mph N/A   Unknown
1:51 AM 34.0 °F 25.5 °F 24.1 °F 67% 29.97 in - SW 11.5 mph 29.9 mph N/A   Unknown
2:51 AM 35.1 °F 25.2 °F 26.1 °F 70% 29.95 in - SW 16.1 mph 27.6 mph N/A   Unknown
3:51 AM 36.0 °F 26.0 °F 28.9 °F 76% 29.92 in - SW 17.3 mph 29.9 mph 0.01 in   Unknown
4:51 AM 37.0 °F 28.1 °F 30.9 °F 79% 29.88 in - SW 15.0 mph 28.8 mph N/A   Unknown
5:51 AM 37.9 °F 30.0 °F 30.9 °F 76% 29.84 in - SSW 12.7 mph 26.5 mph N/A   Unknown
6:51 AM 39.0 °F 30.6 °F 30.9 °F 73% 29.82 in - SW 15.0 mph 26.5 mph N/A   Unknown
7:51 AM 39.0 °F 32.3 °F 32.0 °F 76% 29.80 in - SW 10.4 mph 23.0 mph N/A   Unknown
8:51 AM 39.0 °F 32.3 °F 30.0 °F 70% 29.78 in - WSW 10.4 mph 20.7 mph N/A   Unknown
9:51 AM 36.0 °F 27.1 °F 33.1 °F 89% 29.78 in - WSW 13.8 mph 31.1 mph 0.05 in   Unknown
10:51 AM 36.0 °F 27.5 °F 33.1 °F 89% 29.77 in - WSW 12.7 mph 25.3 mph 0.02 in   Unknown
11:51 AM 37.0 °F 28.1 °F 34.0 °F 89% 29.74 in - WSW 15.0 mph 25.3 mph N/A   Unknown
12:51 PM 37.9 °F 29.2 °F 34.0 °F 86% 29.71 in - WSW 15.0 mph 26.5 mph N/A   Unknown
1:51 PM 37.9 °F 32.1 °F 34.0 °F 86% 29.70 in - WSW 8.1 mph 18.4 mph N/A   Unknown
2:51 PM 37.9 °F 32.1 °F 35.1 °F 89% 29.68 in - WSW 8.1 mph - 0.01 in   Unknown
3:51 PM 37.9 °F 32.7 °F 35.1 °F 89% 29.69 in - Variable 6.9 mph - N/A   Unknown
4:51 PM 39.0 °F 36.8 °F 35.1 °F 86% 29.70 in - Variable 3.5 mph - N/A   Unknown
5:51 PM 39.0 °F 34.0 °F 33.1 °F 79% 29.71 in - West 6.9 mph - N/A   Unknown
6:51 PM 39.0 °F 34.0 °F 33.1 °F 79% 29.72 in - Variable 6.9 mph 20.7 mph N/A   Unknown
7:51 PM 39.0 °F 32.3 °F 33.1 °F 79% 29.74 in - NW 10.4 mph 18.4 mph N/A   Unknown
8:51 PM 37.9 °F 30.0 °F 32.0 °F 79% 29.75 in - NNW 12.7 mph 24.2 mph N/A   Unknown
9:51 PM 37.0 °F 27.7 °F 30.9 °F 79% 29.77 in - NNW 16.1 mph 23.0 mph N/A   Unknown
10:51 PM 36.0 °F 26.7 °F 28.9 °F 76% 29.80 in - NNW 15.0 mph 25.3 mph N/A   Unknown
11:51 PM 35.1 °F 26.9 °F 26.1 °F 70% 29.81 in - NNW 11.5 mph 23.0 mph N/A   Unknown